Zurück zum Katalog

RCM 3

AktivWissenschaftSSO
NORAD 44323·PAYLOAD·🇨🇦 Canada

Gestartet Jun 12, 2019 von Vandenberg Space Force Base

Loading…

Nächste Überflüge (nächste 24 Stunden)

TLE

AktuellSource: Space-Track

Epoche: Sep 14, 2026, 14:05 UTC

1 44323U 19033B   26257.58742984  .00000498  00000-0  53804-4 0  9996
2 44323  97.7600 263.8650 0001506  89.0536 271.0855 14.92591230395438

Verfolge RCM 3 in Echtzeit mit AllMySat

Download on the App Store